Details for Wideroe at ENBR




Go Back


Latest METAR
Local Time

ENBR 181250Z 15016KT 9999 FEW030 BKN070 21/11 Q0997 TEMPO 18018G28KT RMK WIND 1200FT 14021KT
18/09/2018, 15:23:57

Description
Results
Wideroe Logo
Number of Pilots based at ENBR
0 Pilots Based here
Number of Wideroe Flights Departed from ENBR
3 Flights Departed
Number of Wideroe Flights Arrived at ENBR
1 Flights Arrived
Number of Wideroe Schedules Departing from ENBR
42 Schedules
Number of Wideroe Schedules Arriving at ENBR
45 Schedules
Number of Wideroe Schedules Departing from ENBR availible today
33 Schedules Today
Number of Wideroe Schedules Arriving at ENBR availible today
33 Schedules Today
Average Landing Rate at ENBR
-244 fpm
Wideroe Average Landing Rate at ENBR
-26 fpm
Total Fuel Purchased at ENBR by Wideroe
4,280.10 kgs / 9,435.91 lbs

Pilots Based at ENBR


Pilot ID
Pilot Name
Pilot Rank
No. of Flights
No. of Flying Hours
There are no pilots assigned to this hub!   Will you be the first?
Content